Accueil
METAR-TAF:

METAR-TAF

Aéroports :

Romorantin, France

Pruniers

latitude: 47-19N, longitude: 001-41E, altitude: 85 m

Observation

Le bulletin a été fait il y a 42 minutes, à 01:00 UTC
Vent calme
Température 11°C
Humidité 100%
Pression 1021 hPa
Visibilité: 0550 m
brouillard

METAR: LFYR 240100Z AUTO 00000KT 0550 FG NSC 11/11 Q1021

Heure: 03:42 (01:42 UTC)


TAF: absent

Observations et prévisions météorologiques de plus de 4000 aéroports (messages METAR et TAF).

Les stations disponibles sont représentées par des disques jaunes et rouges sur la carte.

Passer la souris dessus pour voir le nom de la station.

Cliquer dessus pour voir les observations et prévisions météorologiques.

Pour changer de carte: cliquez sur les boutons verts avec une croix noire pour zoomer, sur le bouton vert avec un tiret pour effectuer un zoom arrière, ou sur les flèches vertes pour les cartes adjacentes.


METAR-TAF: